sat.trackr.live / text

‹ back to catalog

STARLINK-5475

NORAD 55661 · 2023-021AK

PAYLOAD ACTIVE UNKNOWN

§ Identity

Operator
Country
US
Launch date
2023-02-17
Launch site
AFWTR
Launch vehicle
Mass (kg)
RCS (m²)

Purposes: comms

External: N2YO · Heavens-Above · Gunter

§ Orbital elements

Epoch: 2026-05-24T22:18:19.590624Z

Period
96.11 min
Inclination
69.9996°
Eccentricity
0.0002610
Mean motion
14.98330939 rev/d
Perigee alt
570.2 km
Apogee alt
573.9 km
Semi-major
6,950.2 km
B*
5.0625e-5
RAAN
332.2631°
Arg perigee
269.9070°
Mean anomaly
90.1790°
Rev number
18,070

§ Raw data

STARLINK-54751 55661U 23021AK  26144.92939341  .00000511  00000+0  50625-4 0  99962 55661  69.9996 332.2631 0002610 269.9070  90.1790 14.98330939180706

JSON: /api/v1/satellites/55661 · /tle

For live sub-satellite position, see the globe view (requires WebGL).

§ Visibility from observer

Set your observer location to see the next 7 days of passes ≥ 10°. The values pass through the URL so the page stays shareable.

No JS? Fill the form by hand. The geolocation button needs JavaScript.